sat.trackr.live / text

‹ back to catalog

GAOFEN-5 02

NORAD 49122 · 2021-079A

PAYLOAD ACTIVE UNKNOWN

§ Identity

Operator
Country
PRC
Launch date
2021-09-07
Launch site
TAISC
Launch vehicle
Mass (kg)
RCS (m²)

External: N2YO · Heavens-Above · Gunter

§ Orbital elements

Epoch: 2026-09-20T22:44:15.677952Z

Period
98.79 min
Inclination
98.2530°
Eccentricity
0.0002043
Mean motion
14.57681209 rev/d
Perigee alt
699.2 km
Apogee alt
702.1 km
Semi-major
7,078.8 km
B*
-7.2305e-6
RAAN
337.5220°
Arg perigee
68.9678°
Mean anomaly
291.1739°
Rev number
26,803

§ Raw data

GAOFEN-5 021 49122U 21079A   26263.94740368 -.00000079  00000+0 -72305-5 0  99962 49122  98.2530 337.5220 0002043  68.9678 291.1739 14.57681209268036

JSON: /api/v1/satellites/49122 · /tle

For live sub-satellite position, see the globe view (requires WebGL).

§ Visibility from observer

Set your observer location to see the next 7 days of passes ≥ 10°. The values pass through the URL so the page stays shareable.

No JS? Fill the form by hand. The geolocation button needs JavaScript.

§ Radio — SatNOGS DB

ModeDescriptionDownlinkUplink
BPSK S-band telemetry 2.230 GHz

1 transmitter · refreshed weekly from db.satnogs.org